Regional Weather Roundup
Issued by NWS Charleston, SC

Current Version | Previous Version | Text Only | Print | Product List | Glossary Off
Versions: 1 2 3 4 5 6 7 8 9 10 11 12 13 14 15 16 17 18 19 20 21 22 23 24 25 26 27 28 29 30 31 32 33 34 35 36 37 38 39 40 41 42 43 44 45 46 47 48 49 50

000
ASUS42 KCHS 300613
RWRCHS

REGIONAL WEATHER ROUNDUP
NATIONAL WEATHER SERVICE CHARLESTON SC
200 AM EDT TUE AUG 30 2016

NOTE: "FAIR" INDICATES FEW OR NO CLOUDS BELOW 12,000 FEET WITH NO
SIGNIFICANT WEATHER AND/OR OBSTRUCTIONS TO VISIBILITY.

NOT ALL STATIONS ARE QUALITY CONTROLLED. USE DATA WITH CAUTION...
ESPECIALLY DEWPOINT OBSERVATIONS.

SCZ027-030-031-034>040-042>050-300700-
...SOUTHEAST SOUTH CAROLINA...

CITY           SKY/WX    TMP DP  RH WIND       PRES   REMARKS
N CHARLESTON   MOCLDY    76  73  91 N6        30.03F
6HR MIN TEMP:  75; 6HR MAX TEMP:  79;

WATERFRONT PRK   N/A     80  77  90 N7        30.01F
MOUNT PLEASANT FAIR      75  75 100 CALM      30.04S
JOHNS ISLAND   FAIR      77  75  94 CALM      30.04S
PINOPOLIS        N/A     79  75  89 E6        29.98F
MONCKS CORNER  FAIR      72  70  94 CALM      30.04F
SUMMERVILLE    FAIR      73  73 100 CALM      30.05F
BEAUFORT MCAS  CLOUDY    76  74  93 NE5       30.03F
6HR MIN TEMP:  74; 6HR MAX TEMP:  76;

BEAUFORT ARPT  FAIR      77  75  94 NE6       30.02F
HILTON HEAD IS MOCLDY    79  77  94 VRB5      30.03F
WALTERBORO     MOCLDY    73  73 100 CALM      30.06S
ALLENDALE      FAIR      72  72 100 CALM      30.05S

...SOUTHERN MIDLANDS AND PEE DEE...

CITY           SKY/WX    TMP DP  RH WIND       PRES   REMARKS
GEORGETOWN     FAIR      72  72 100 CALM      30.05F
KINGSTREE      MOCLDY    70  68  94 CALM      30.06S
ORANGEBURG     MOCLDY    73  73 100 CALM      30.06F
6HR MIN TEMP:  73; 6HR MAX TEMP:  79;

BARNWELL       NOT AVBL
AIKEN          FAIR      70  70 100 NE3       30.11S
MANNING        FAIR      70  68  94 N3        30.06F
COLUMBIA       PTCLDY    75  71  87 CALM      30.07S
6HR MIN TEMP:  74; 6HR MAX TEMP:  83;

SUMTER         PTCLDY    73  71  91 NE2       30.05S
6HR MIN TEMP:  73; 6HR MAX TEMP:  81;

FLORENCE       CLOUDY    76  70  82 CALM      30.07S
6HR MIN TEMP:  75; 6HR MAX TEMP:  81;

MYRTLE BEACH   CLEAR     75  64  69 N5        30.06F
N MYRTLE BEACH PTCLDY    74  71  91 N3        30.04F
6HR MIN TEMP:  73; 6HR MAX TEMP:  80;


$$

GAZ063-065-086>088-099>101-113>116-118-119-134>141-150-300700-
...SOUTHEAST GEORGIA...

CITY           SKY/WX    TMP DP  RH WIND       PRES   REMARKS
SAVANNAH ARPT  LGT RAIN  76  73  91 N6        30.03F
6HR MIN TEMP:  74; 6HR MAX TEMP:  77; 6HR PCP:  0.12;

HUNTER AAF     PTCLDY    76  76 100 CALM      30.01S
6HR MIN TEMP:  76; 6HR MAX TEMP:  79; 6HR PCP: TRACE;

FORT STEWART   PTCLDY    74  72  93 CALM      30.01S
6HR MIN TEMP:  74; 6HR MAX TEMP:  80;

STATESBORO     CLEAR     73  73 100 CALM      30.05S
SYLVANIA       NOT AVBL
CLAXTON        FAIR      73  73 100 CALM      30.04F

...CSRA...CENTRAL AND FAR SOUTHEAST GEORGIA...

CITY           SKY/WX    TMP DP  RH WIND       PRES   REMARKS
THOMSON        NOT AVBL
AUGUSTA-BUSH   CLEAR     71  70  96 CALM      30.05F
6HR MIN TEMP:  70; 6HR MAX TEMP:  76;

AUGUSTA-DANIEL CLEAR     76  71  85 N6        30.08R
SWAINSBORO     FAIR      75  72  88 CALM      30.06F
VIDALIA        CLEAR     75  73  94 NE3       30.05F
EASTMAN        FAIR      77  66  68 CALM      30.06F
HAZLEHURST     FAIR      76  75  96 CALM      30.02F
ALMA           CLEAR     75  74  96 CALM      30.02F
6HR MIN TEMP:  75; 6HR MAX TEMP:  82;

WAYCROSS         N/A     78  77  98 CALM      30.01F
JESUP          FAIR      75  75 100 CALM      30.03R
BAXLEY         FAIR      75  75 100 NE6       30.02F
BRUNSWICK      CLEAR     77  77 100 NE5       30.02S
SAINT SIMONS   CLEAR     81  73  76 E10       30.00F
6HR MIN TEMP:  80; 6HR MAX TEMP:  84; 6HR PCP:  0.01;


$$

SCZ027-028-034-036>038-045-046-048>050-GAZ119-141-300700-
...LAKE AND SUPPLEMENTAL COASTAL OBSERVATIONS...

STATION/POSITION TIME  TEMP    WIND        PRES    WAVE   SWELL
                       AIR SEA DIR/SP/G            HT/PER HT/PER/DIR
                 (UTC) (F)     (DEG/KT/KT) (MB)    (FT/S) (FT/S/D)
WINYAH BAY       NOT AVBL
LAKE MURRAY      0500   78      CALM  /  3 1017.9S
ACE BASIN NERRS  NOT AVBL
FORT PULASKI     0500   82 85  100/  7/ 10 1017.2F
SAPELO ISLAND    0500   81      80/  5     1017.0S

$$

ANZ835-935-AMZ111-154-330-350-352-354-370-450-454-472-300700-
...C-MAN AND BUOY OBSERVATIONS...

STATION/POSITION TIME  TEMP    WIND        PRES    WAVE   SWELL
                       AIR SEA DIR/SP/G            HT/PER HT/PER/DIR
                 (UTC) (F)     (DEG/KT/KT) (MB)    (FT/S) (FT/S/D)
BUOY 41004       0550   83 85   50/  8/ 10 1016.1F   4/12   3/110/12
BUOY 41008       0550   82 85  110/  8/ 10 1016.0F   4/12   3/ 90/12
FOLLY BEACH CMAN 0500   82      70/ 11/ 13 1017.3F
CAPERS NEARSHORE 0508   83 84   70/ 10/ 14 1017.0F
FRIPP NEARSHORE  0508   83 85  100/ 10/ 14 1016.3F


STATION/POSITION TIME  TEMP    WIND        PRES    WAVE   SWELL
                       AIR SEA DIR/SP/G            HT/PER HT/PER/DIR
                 (UTC) (F)     (DEG/KT/KT) (MB)    (FT/S) (FT/S/D)
5E ST. MARYS GA  0501      85                N/A     5/13   3/100/13
FRYING PAN BUOY  0500   83 85   30/ 14/ 16 1016.5F
BUOY 41025       0550   83 84   50/ 16/ 17 1015.4F   6/12   5/120/12
CAPE LOOKOUT NC  0500   80      20/ 10/ 13 1016.5F
BUOY 41002       0550   83 84  220/ 12/ 14 1015.2F   5/12   5/ 70/12
BUOY 41010       NOT AVBL
ST AUGUSTINE FL  0600   81 83  110/ 15/ 17 1015.3F


$$



USA.gov is the U.S. government's official web portal to all federal, state and local government web resources and services.